Flag for Germany Weather past 2 weeks in Cottbus, Brandenburg, Germany

Now
55 °F

Overcast.


Feels Like: 55 °F
Forecast: 43 / 68 °F
Wind: 2 mph from West

Location: Cottbus

Current Time: May 27, 2015 at 9:10:53 PM

Latest Report: May 27, 2015 at 8:00 PM


Visibility: 37 mi

Pressure: 30.12 "Hg

Humidity: 58%

Dew point: 40 °F

Location of CottbusLocation

Historic Weather in Cottbus — Graph

°F

Cottbus temperature yesterday

Maximum temperature yesterday: 63 °F (at 3:00 PM)
Minimum temperature yesterday: 51 °F (at 7:00 AM)
Average temperature yesterday: 57 °F

Past Weeks' High & Low Weather Summary

 TemperatureHumidityPressure
High75 °F (May 12, 8:00 PM)100% (May 15, 4:00 AM)30.33 "Hg (May 15, 4:00 AM)
Low34 °F (May 15, 5:00 AM)28% (May 24, 5:00 PM)29.63 "Hg (May 19, 3:00 AM)
Average56 °F64%30.02 "Hg
* Reported May 12 8:00 PM — May 27 8:00 PM, Cottbus, Weather by CustomWeather, © 2015

Note: Actual official high and low records may vary slightly from our data, if they occured in-between our weather recording intervals... More about our weather records

Advertising

Cottbus weather history for previous 24 hours

 ConditionsComfort  
Time TempWeatherWind HumidityBarometerVisibility
8:00 PM
Wed, May 27
55 °FOvercast.2 mph58%30.12 "Hg37 mi
7:00 PM56 °FOvercast.3 mph56%30.13 "Hg31 mi
6:00 PM55 °FOvercast.5 mph58%30.12 "Hg31 mi
5:00 PM56 °FOvercast.5 mph57%30.13 "Hg34 mi
4:00 PM55 °FOvercast.3 mph57%30.12 "Hg34 mi
3:00 PM55 °FOvercast.5 mph59%30.13 "Hg31 mi
2:00 PM55 °FOvercast.6 mph61%30.13 "Hg40 mi
1:00 PM53 °FLight freezing rain. Low clouds.5 mph65%30.13 "Hg15 mi
12:00 PM54 °FOvercast.5 mph62%30.14 "Hg37 mi
11:00 AM54 °FOvercast.7 mph57%30.14 "Hg25 mi
10:00 AM53 °FOvercast.6 mph63%30.14 "Hg19 mi
9:00 AM51 °FOvercast.5 mph71%30.14 "Hg25 mi
8:00 AM50 °FScattered clouds.5 mph72%30.13 "Hg16 mi
7:00 AM48 °FSunny.2 mph76%30.13 "Hg18 mi
6:00 AM46 °FScattered clouds.2 mph80%30.13 "Hg28 mi
5:00 AM46 °FPartly sunny.2 mph82%30.12 "Hg28 mi
4:00 AM48 °FPassing clouds.2 mph77%30.10 "Hg34 mi
3:00 AM51 °FOvercast.3 mph70%30.07 "Hg40 mi
2:00 AM51 °FOvercast.2 mph69%30.07 "Hg40 mi
1:00 AM52 °FOvercast.2 mph69%30.07 "Hg43 mi
12:00 AM53 °FOvercast.3 mph64%30.07 "Hg43 mi
11:00 PM
Tue, May 26
54 °FOvercast.3 mph64%30.07 "Hg40 mi
10:00 PM55 °FOvercast.2 mph60%30.06 "Hg43 mi
9:00 PM56 °FOvercast.3 mph56%30.04 "Hg43 mi
Weather by CustomWeather, © 2015

See weather overviewHow to use our weather pages